Cruise inventory

RV Lough Foyle LF1/89

Cruise summary report

Cruise Info. 
Ship name (ship code)RV Lough Foyle (74LG)
Cruise identifierLF1/89
Cruise period1989-05-05 — 1989-05-11
StatusCompleted
Port of departureDunstaffnage, United Kingdom
Port of returnDunstaffnage, United Kingdom
PurposeResearch
ObjectivesWater samples/ CTD profiles, including the Ellett Line. D1/1989
Chief scientistDavid J Ellett (Dunstaffnage Marine Laboratory)
Cruise reportRV Lough Foyle LF1/89 cruise report lf1_89.pdf — access key 'C' (0.16 MB) 
Ocean/sea areas 
GeneralInner Seas off the West Coast of Scotland
North East Atlantic Ocean (limit 40W)
SpecificScottish Cont. Shelf/ Rockall Channel/ North Channel
Track chartsRV Lough Foyle LF1/89 cruise track — trk3481.html
Measurements 
Physical oceanography 
Water bottle stationsQuantity: number of stations = 77
Description: S surface and bottom
CTD stationsQuantity: number of stations = 100
Current metersQuantity: 1
Description: 2 recovered;100 days
Chemical oceanography 
IsotopesQuantity: 10
Description: Cs
Data held at BODC 
Series/Profiles 
100  CTD/STD cast
Vertical spatial coordinates
Salinity of the water column
Temperature of the water column
Vertical spatial coordinates
Salinity of the water column
Temperature of the water column

BODC idDate/TimeLocationDoc.
3802771989-05-10 11:01 54° 43' 0" N  5° 19' 59" W  View metadata report for BODC series reference number 380277
2667681989-05-10 21:54 55° 18' 59" N  5° 4' 59" W  View metadata report for BODC series reference number 266768
2667811989-05-10 22:44 55° 15' 59" N  4° 55' 59" W  View metadata report for BODC series reference number 266781
2667931989-05-10 23:14 55° 12' 59" N  4° 57' 59" W  View metadata report for BODC series reference number 266793
2667191989-05-10 18:47 55° 21' 59" N  5° 27' 0" W  View metadata report for BODC series reference number 266719
2667201989-05-10 19:33 55° 27' 0" N  5° 27' 59" W  View metadata report for BODC series reference number 266720
2667321989-05-10 20:15 55° 23' 59" N  5° 19' 59" W  View metadata report for BODC series reference number 266732
2667441989-05-10 20:56 55° 21' 59" N  5° 12' 0" W  View metadata report for BODC series reference number 266744
2667561989-05-10 21:29 55° 19' 59" N  5° 7' 59" W  View metadata report for BODC series reference number 266756
2661911989-05-08 18:35 55° 45' 59" N  6° 30' 0" W  View metadata report for BODC series reference number 266191
2662091989-05-08 19:30 55° 52' 59" N  6° 28' 59" W  View metadata report for BODC series reference number 266209
2662101989-05-08 20:10 55° 57' 0" N  6° 34' 59" W  View metadata report for BODC series reference number 266210
2662221989-05-08 20:54 56° 0' 59" N  6° 40' 59" W  View metadata report for BODC series reference number 266222
2662341989-05-08 21:44 56° 4' 59" N  6° 46' 59" W  View metadata report for BODC series reference number 266234
2662461989-05-08 22:39 56° 8' 59" N  6° 52' 59" W  View metadata report for BODC series reference number 266246
2662581989-05-08 23:38 56° 12' 59" N  6° 58' 59" W  View metadata report for BODC series reference number 266258
2662711989-05-09 00:32 56° 16' 59" N  7° 4' 59" W  View metadata report for BODC series reference number 266271
2662831989-05-09 05:13 56° 6' 0" N  5° 52' 59" W  View metadata report for BODC series reference number 266283
2662951989-05-09 05:43 56° 7' 59" N  5° 55' 59" W  View metadata report for BODC series reference number 266295
2663021989-05-09 06:20 56° 10' 59" N  5° 58' 59" W  View metadata report for BODC series reference number 266302
2663141989-05-09 06:58 56° 13' 59" N  6° 1' 59" W  View metadata report for BODC series reference number 266314
2663261989-05-09 07:38 56° 16' 59" N  6° 4' 59" W  View metadata report for BODC series reference number 266326
2663381989-05-09 13:59 55° 13' 59" N  6° 45' 0" W  View metadata report for BODC series reference number 266338
2663511989-05-09 14:46 55° 18' 59" N  6° 40' 59" W  View metadata report for BODC series reference number 266351
2663631989-05-09 15:32 55° 22' 59" N  6° 36' 59" W  View metadata report for BODC series reference number 266363
2663751989-05-09 16:18 55° 27' 59" N  6° 33' 59" W  View metadata report for BODC series reference number 266375
2663871989-05-09 17:02 55° 32' 59" N  6° 30' 0" W  View metadata report for BODC series reference number 266387
2663991989-05-09 17:43 55° 36' 59" N  6° 25' 59" W  View metadata report for BODC series reference number 266399
2664061989-05-09 18:22 55° 42' 0" N  6° 21' 59" W  View metadata report for BODC series reference number 266406
2664181989-05-09 20:50 55° 38' 59" N  6° 0' 59" W  View metadata report for BODC series reference number 266418
2664311989-05-09 21:19 55° 37' 59" N  5° 57' 0" W  View metadata report for BODC series reference number 266431
2664431989-05-09 21:45 55° 36' 59" N  5° 52' 59" W  View metadata report for BODC series reference number 266443
2664551989-05-09 22:11 55° 36' 0" N  5° 48' 59" W  View metadata report for BODC series reference number 266455
2664671989-05-09 22:40 55° 34' 59" N  5° 45' 0" W  View metadata report for BODC series reference number 266467
2664791989-05-10 01:01 55° 9' 59" N  6° 0' 0" W  View metadata report for BODC series reference number 266479
2664801989-05-10 01:34 55° 10' 59" N  5° 55' 59" W  View metadata report for BODC series reference number 266480
2664921989-05-10 02:07 55° 12' 59" N  5° 51' 59" W  View metadata report for BODC series reference number 266492
2665111989-05-10 02:38 55° 15' 0" N  5° 46' 59" W  View metadata report for BODC series reference number 266511
2665231989-05-10 03:17 55° 16' 59" N  5° 43' 59" W  View metadata report for BODC series reference number 266523
2665351989-05-10 04:06 55° 12' 59" N  5° 37' 59" W  View metadata report for BODC series reference number 266535
2665471989-05-10 04:54 55° 8' 59" N  5° 31' 59" W  View metadata report for BODC series reference number 266547
2665591989-05-10 05:39 55° 4' 59" N  5° 25' 59" W  View metadata report for BODC series reference number 266559
2665601989-05-10 06:24 55° 0' 59" N  5° 19' 59" W  View metadata report for BODC series reference number 266560
2665721989-05-10 07:04 54° 57' 0" N  5° 13' 59" W  View metadata report for BODC series reference number 266572
2665841989-05-10 10:00 54° 39' 59" N  5° 30' 0" W  View metadata report for BODC series reference number 266584
2665961989-05-10 10:27 54° 42' 0" N  5° 24' 59" W  View metadata report for BODC series reference number 266596
2666031989-05-10 11:07 54° 42' 59" N  5° 19' 59" W  View metadata report for BODC series reference number 266603
2666151989-05-10 11:45 54° 45' 0" N  5° 15' 0" W  View metadata report for BODC series reference number 266615
2666271989-05-10 12:24 54° 45' 59" N  5° 9' 59" W  View metadata report for BODC series reference number 266627
2666391989-05-10 12:58 54° 47' 59" N  5° 4' 59" W  View metadata report for BODC series reference number 266639
2666401989-05-10 15:31 55° 8' 59" N  5° 2' 59" W  View metadata report for BODC series reference number 266640
2666521989-05-10 16:08 55° 10' 59" N  5° 9' 59" W  View metadata report for BODC series reference number 266652
2666641989-05-10 16:37 55° 12' 59" N  5° 15' 0" W  View metadata report for BODC series reference number 266664
2666761989-05-10 17:24 55° 15' 59" N  5° 24' 0" W  View metadata report for BODC series reference number 266676
2666881989-05-10 17:51 55° 15' 59" N  5° 30' 0" W  View metadata report for BODC series reference number 266688
2667071989-05-10 18:25 55° 19' 59" N  5° 27' 59" W  View metadata report for BODC series reference number 266707
2661301989-05-08 15:05 55° 45' 59" N  7° 16' 59" W  View metadata report for BODC series reference number 266130
2661421989-05-08 16:01 55° 45' 59" N  7° 3' 59" W  View metadata report for BODC series reference number 266142
2661541989-05-08 16:43 55° 45' 59" N  6° 55' 59" W  View metadata report for BODC series reference number 266154
2661661989-05-08 17:26 55° 45' 59" N  6° 46' 59" W  View metadata report for BODC series reference number 266166
2661781989-05-08 18:04 55° 45' 59" N  6° 37' 59" W  View metadata report for BODC series reference number 266178
2657281989-05-05 12:02 56° 39' 59" N  6° 7' 59" W  View metadata report for BODC series reference number 265728
2657411989-05-05 13:51 56° 40' 59" N  6° 16' 59" W  View metadata report for BODC series reference number 265741
2657531989-05-05 14:50 56° 43' 59" N  6° 27' 0" W  View metadata report for BODC series reference number 265753
2657651989-05-05 16:33 56° 43' 59" N  6° 45' 0" W  View metadata report for BODC series reference number 265765
2657771989-05-05 17:45 56° 43' 59" N  7° 0' 0" W  View metadata report for BODC series reference number 265777
2657891989-05-05 19:36 56° 43' 59" N  7° 19' 59" W  View metadata report for BODC series reference number 265789
2657901989-05-05 20:26 56° 43' 59" N  7° 30' 0" W  View metadata report for BODC series reference number 265790
2658081989-05-05 21:18 56° 43' 59" N  7° 39' 59" W  View metadata report for BODC series reference number 265808
2658211989-05-05 22:55 56° 46' 59" N  8° 0' 0" W  View metadata report for BODC series reference number 265821
2658331989-05-06 00:42 56° 49' 59" N  8° 19' 59" W  View metadata report for BODC series reference number 265833
2658451989-05-06 01:40 56° 52' 59" N  8° 30' 0" W  View metadata report for BODC series reference number 265845
2658571989-05-06 03:29 56° 57' 0" N  8° 46' 59" W  View metadata report for BODC series reference number 265857
2658691989-05-06 04:34 57° 0' 0" N  9° 0' 0" W  View metadata report for BODC series reference number 265869
2658701989-05-06 05:55 57° 2' 59" N  9° 12' 59" W  View metadata report for BODC series reference number 265870
2658821989-05-06 07:06 57° 6' 0" N  9° 24' 59" W  View metadata report for BODC series reference number 265882
2658941989-05-06 08:58 57° 8' 59" N  9° 41' 59" W  View metadata report for BODC series reference number 265894
2659011989-05-06 11:36 57° 13' 59" N  10° 3' 0" W  View metadata report for BODC series reference number 265901
2659131989-05-06 14:02 57° 17' 59" N  10° 22' 59" W  View metadata report for BODC series reference number 265913
2659251989-05-06 16:23 57° 21' 59" N  10° 39' 59" W  View metadata report for BODC series reference number 265925
2659371989-05-06 18:13 57° 23' 59" N  10° 51' 59" W  View metadata report for BODC series reference number 265937
2659491989-05-06 19:29 57° 27' 0" N  11° 4' 59" W  View metadata report for BODC series reference number 265949
2659501989-05-06 20:40 57° 27' 59" N  11° 18' 59" W  View metadata report for BODC series reference number 265950
2659621989-05-06 21:56 57° 28' 59" N  11° 31' 59" W  View metadata report for BODC series reference number 265962
2659741989-05-07 00:18 57° 30' 0" N  11° 50' 59" W  View metadata report for BODC series reference number 265974
2659861989-05-07 03:04 57° 30' 59" N  12° 15' 0" W  View metadata report for BODC series reference number 265986
2659981989-05-07 05:35 57° 31' 59" N  12° 37' 59" W  View metadata report for BODC series reference number 265998
2660011989-05-07 07:14 57° 32' 59" N  12° 51' 59" W  View metadata report for BODC series reference number 266001
2660131989-05-07 08:15 57° 32' 59" N  13° 0' 0" W  View metadata report for BODC series reference number 266013
2660251989-05-07 09:39 57° 33' 59" N  13° 19' 59" W  View metadata report for BODC series reference number 266025
2660371989-05-07 10:49 57° 34' 59" N  13° 37' 59" W  View metadata report for BODC series reference number 266037
2660491989-05-07 16:08 56° 57' 59" N  12° 34' 59" W  View metadata report for BODC series reference number 266049
2660501989-05-08 03:02 56° 0' 0" N  9° 49' 59" W  View metadata report for BODC series reference number 266050
2660621989-05-08 04:53 55° 55' 59" N  9° 37' 59" W  View metadata report for BODC series reference number 266062
2660741989-05-08 06:21 55° 51' 59" N  9° 26' 59" W  View metadata report for BODC series reference number 266074
2660861989-05-08 07:44 55° 46' 59" N  9° 15' 59" W  View metadata report for BODC series reference number 266086
2660981989-05-08 09:43 55° 45' 59" N  8° 39' 59" W  View metadata report for BODC series reference number 266098
2661051989-05-08 11:58 55° 45' 59" N  8° 0' 0" W  View metadata report for BODC series reference number 266105
2661171989-05-08 13:14 55° 45' 59" N  7° 42' 0" W  View metadata report for BODC series reference number 266117
2661291989-05-08 14:10 55° 45' 59" N  7° 28' 59" W  View metadata report for BODC series reference number 266129
1  Savonius rotor current meter
Moored instrument depth
Salinity of the water column
Horizontal velocity of the water column (currents)
Temperature of the water column
Reference numbers
Date and time
Moored instrument depth
Salinity of the water column
Horizontal velocity of the water column (currents)
Temperature of the water column
Reference numbers
Date and time

BODC idDate/TimeLocationDoc.
18040321989-05-05 11:30:06  — 1989-08-04 11:00:24 56° 37' 0" N  6° 24' 11" W  View metadata report for BODC series reference number 1804032